Location: Écuvilly
(49.6505°N, 2.9206°E)
Time: 06:15:10
(UTC+00:00)

SJ 16-02 - Pass Details

Date: 17 November 2025
Orbit: 585 x 594 km, 75.0° (Epoch: 16 December)

Event Time Altitude Azimuth Distance (km) Brightness Sun altitude
Rises 19:48:59 0° 246° (WSW) 2,830 5.4 -36.3°
Reaches altitude 10° 19:51:51 10° 266° (W) 1,932 4.6 -36.7°
Enters shadow 19:53:08 15° 282° (WNW) 1,650 4.2 -36.9°
